Content
SEND FEEDBACK

Daily
Averages
Monthly
Summary
United States of America

ALBANY, NEW YORK


Home > North America > United States > New York
Elevation: 275 feet     Latitude: 42 45N     Longitude: 073 48W

WEATHER
 
SELECT A DAY
Number of Records: 207,224;   Date Range: 1/1/95 - 9/14/14
 
SHARE

PRINT THIS DATA

[ ← Previous Day ]
WEATHER ALMANAC - JANUARY 31, 2013
[ Next Day → ]
[ °C ]   °F
Weather ElementAverageHighLow
Temperature36.6 °F53.6 °F (1:09 am)24.1 °F (10:51 pm)
Dewpoint29.7 °F52 °F (1:51 am)17.1 °F (3:51 pm)
Humidity77.4 %100 % (3:05 am)45 % (11:51 am)
Barometer29.36 in29.66 in (10:51 pm)28.92 in (5:51 am)
Wind Speed16.3 mph38 mph (6:19 am)
Wind Gust51.8 mph (6:19 am)
Weather ElementAverage
Visibility6 mi
Wind DirectionWSW (258.6 °)

Weather ElementTotal
Precipitation0.77 in
Heating Degree Days26.2 (Base 65)
Averaged from 43 records on January 31, 2013
WEATHER CONDITIONS BREAKOUT
WIND DIRECTION BREAKOUT
WEATHER BY HOUR - JANUARY 31, 2013
[ °C ]   °F
Local TimeTemperatureDewpointHumidityBarometerVisibilityWind DirectionWind SpeedGust SpeedPrecipitationEventsConditions
1:09 AM53.6 °F51.8 °F94 %29.21 in6.0 miSSE (160°)11.5 mph18.4 mph0.01 inRainLight Rain
1:51 AM53.1 °F52.0 °F96 %29.17 in8.0 miSouth (170°)11.5 mph0.01 inRainLight Rain
2:51 AM52.0 °F51.1 °F97 %29.10 in4.0 miSouth (190°)6.9 mph0.04 inRainLight Rain
3:05 AM51.8 °F51.8 °F100 %29.07 in5.0 miSouth (170°)6.9 mph0.02 inRainLight Rain
3:51 AM52.0 °F51.1 °F97 %29.01 in9.0 miSSE (160°)8.1 mph0.07 inRainLight Rain
4:51 AM53.1 °F52.0 °F96 %28.97 in5.0 miSouth (180°)6.9 mph0.06 inRainLight Rain
4:58 AM53.6 °F51.8 °F94 %28.96 in4.0 miSouth (170°)12.7 mph16.1 mph0.02 inRainRain
5:51 AM53.1 °F52.0 °F96 %28.92 in8.0 miSouth (190°)6.9 mph0.03 inRainLight Rain
6:16 AM53.6 °F51.8 °F94 %28.99 in5.0 miWSW (250°)13.8 mph29.9 mph0.01 inRainRain
6:19 AM50.0 °F48.2 °F94 %29.02 in1.0 miWNW (290°)38.0 mph51.8 mph0.01 inRainHeavy Rain
6:25 AM44.6 °F41.0 °F87 %29.06 in2.0 miWNW (290°)32.2 mph51.8 mph0.08 inRainRain
6:32 AM42.8 °F39.2 °F87 %29.09 in3.0 miWest (280°)24.2 mph44.9 mph0.11 inRainRain
6:43 AM42.8 °F37.4 °F81 %29.04 in5.0 miWNW (300°)24.2 mph41.4 mph0.13 inRainLight Rain
6:51 AM42.1 °F36.0 °F79 %29.04 in7.0 miWNW (300°)24.2 mph42.6 mph0.14 inRainLight Rain
7:51 AM41.0 °F34.0 °F76 %29.11 in10.0 miWest (280°)17.3 mph28.8 mph0.00 inRainLight Rain
8:51 AM39.9 °F30.0 °F68 %29.17 in10.0 miWest (280°)25.3 mph38.0 mph0.00 inMostly Cloudy
9:51 AM39.0 °F27.0 °F62 %29.23 in10.0 miWest (270°)24.2 mph36.8 mphMostly Cloudy
10:51 AM39.9 °F21.9 °F49 %29.27 in10.0 miWest (260°)32.2 mph43.7 mphMostly Cloudy
11:51 AM39.9 °F19.9 °F45 %29.30 in10.0 miWest (280°)28.8 mph41.4 mphMostly Cloudy
12:51 PM37.9 °F19.9 °F48 %29.34 in10.0 miWest (260°)23.0 mph31.1 mph0.00 inSnowLight Snow
1:51 PM36.0 °F18.0 °F48 %29.37 in10.0 miWest (280°)21.9 mph29.9 mph0.00 inMostly Cloudy
2:51 PM35.1 °F19.0 °F52 %29.41 in10.0 miWest (270°)17.3 mph32.2 mph0.00 inSnowLight Snow
3:51 PM34.0 °F17.1 °F50 %29.45 in10.0 miWest (270°)20.7 mph27.6 mph0.00 inSnowLight Snow
4:51 PM32.0 °F21.0 °F64 %29.49 in10.0 miWest (270°)15.0 mph29.9 mph0.00 inSnowLight Snow
5:51 PM30.9 °F19.9 °F64 %29.54 in9.0 miWNW (290°)10.4 mph24.2 mph0.00 inSnowLight Snow
6:51 PM28.9 °F19.0 °F67 %29.59 in9.0 miWNW (290°)24.2 mph29.9 mph0.00 inSnowLight Snow
7:18 PM26.6 °F21.2 °F80 %29.59 in1.5 miWest (270°)13.8 mph25.3 mph0.00 inSnowLight Snow
7:43 PM28.4 °F19.4 °F69 %29.60 in3.0 miWest (260°)19.6 mph28.8 mph0.00 inSnowLight Snow
7:51 PM27.0 °F21.0 °F78 %29.61 in3.0 miWest (260°)13.8 mph25.3 mph0.00 inSnowLight Snow
7:58 PM26.6 °F21.2 °F80 %29.60 in3.0 miWest (260°)13.8 mph0.00 inSnowLight Snow
8:11 PM26.6 °F19.4 °F74 %29.60 in10.0 miWest (260°)11.5 mph19.6 mph0.00 inMostly Cloudy
8:51 PM28.0 °F18.0 °F66 %29.63 in10.0 miWest (270°)16.1 mph24.2 mph0.00 inMostly Cloudy
9:13 PM26.6 °F19.4 °F74 %29.63 in2.0 miWest (270°)15.0 mph25.3 mph0.00 inSnowLight Snow
9:20 PM26.6 °F21.2 °F80 %29.63 in1.5 miWest (280°)13.8 mph21.9 mph0.00 inSnowLight Snow
9:29 PM26.6 °F21.2 °F80 %29.63 in0.8 miWest (280°)16.1 mph21.9 mph0.00 inSnowLight Snow
9:34 PM24.8 °F21.2 °F86 %29.63 in1.5 miWNW (290°)13.8 mph0.00 inSnowLight Snow
9:40 PM24.8 °F21.2 °F86 %29.64 in3.0 miWNW (290°)11.5 mph0.00 inSnowLight Snow
9:49 PM26.6 °F21.2 °F80 %29.64 in0.8 miWest (280°)10.4 mphSnowLight Snow
9:51 PM26.1 °F21.9 °F84 %29.65 in0.8 miWest (280°)10.4 mph0.00 inSnowLight Snow
10:06 PM24.8 °F21.2 °F86 %29.64 in2.0 miNW (310°)6.9 mph0.01 inSnowLight Snow
10:35 PM24.8 °F19.4 °F80 %29.64 in4.0 miWNW (290°)11.5 mph0.01 inSnowLight Snow
10:51 PM24.1 °F19.9 °F84 %29.66 in9.0 miWNW (300°)8.1 mph0.01 inScattered Clouds
11:51 PM24.1 °F17.1 °F75 %29.66 in10.0 miWest (270°)8.1 mphScattered Clouds
Hourly data recorded from KALB, located miles away from Albany, New York







STORIES FROM OUR PARTNERS